Regional Weather Roundup
Issued by NWS Little Rock, AR

Home | Current Version | Previous Version | Graphics & Text | Print | Product List | Glossary On
Versions: 1 2 3 4 5 6 7 8 9 10 11 12 13 14 15 16 17 18 19 20 21 22 23 24 25 26 27 28 29 30 31
000
ASUS44 KLZK 190805
RWRLZK

WEATHER ROUNDUP FOR ARKANSAS
NATIONAL WEATHER SERVICE LITTLE ROCK AR
300 AM CDT SAT AUG 19 2017

NOTE: "FAIR" INDICATES FEW OR NO CLOUDS BELOW 12,000 FEET WITH NO
SIGNIFICANT WEATHER AND/OR OBSTRUCTIONS TO VISIBILITY.

ARZ001-003-010-029-190900-
NORTHWEST ARKANSAS

CITY           SKY/WX    TMP DP  RH WIND       PRES   REMARKS
FAYETTEVILLE   CLEAR     70  70 100 SW6       30.01S
FORT SMITH     CLEAR     73  72  96 E5        29.99R
HARRISON       CLEAR     67  67 100 SE5       30.01S
BENTONVILLE    CLEAR     70  66  88 S3        30.01S
ROGERS         CLEAR     69  68  96 SE5       30.02R
SILOAM SPGS    CLEAR     72  70  94 S3        30.00S
HIGHFILL       CLEAR     69  69 100 S3        30.01S
$$

ARZ004-005-016-190900-
NORTH CENTRAL ARKANSAS

CITY           SKY/WX    TMP DP  RH WIND       PRES   REMARKS
BATESVILLE     CLEAR     72  70  94 CALM      29.98S
FLIPPIN        MOCLDY    68  63  83 CALM      29.97F
$$

ARZ040-041-190900-
WEST CENTRAL ARKANSAS

CITY           SKY/WX    TMP DP  RH WIND       PRES   REMARKS
MENA           CLEAR     75  73  94 CALM      30.02S
MOUNT IDA      CLEAR     72  70  93 CALM      29.99S
$$

ARZ009-017-025-026-028-190900-
NORTHEAST ARKANSAS

CITY           SKY/WX    TMP DP  RH WIND       PRES   REMARKS
CORNING        FAIR      72  72 100 SW7       29.93F
JONESBORO      CLEAR     74  72  93 CALM      29.95F
NEWPORT        CLEAR     74  72  93 SW5       29.97
WALNUT RIDGE   CLEAR     73  70  88 S3        29.95F
BLYTHEVILLE    CLOUDY    74  69  85 S6        29.96S
$$

ARZ022-023-033-042-044-190900-
CENTRAL ARKANSAS

CITY           SKY/WX    TMP DP  RH WIND       PRES   REMARKS
LITTLE ROCK    PTCLDY    71  71 100 SW5       29.99S
N LITTLE ROCK    N/A     70  69  95 CALM      29.99S
CONWAY           N/A     73  72  94 CALM      29.97S
SEARCY         CLEAR     71  71 100 CALM      29.99
HOT SPRINGS    CLEAR     75  73  93 CALM      30.00S
RUSSELLVILLE   CLEAR     70  70 100 CALM      29.99S FOG
CLINTON        MOCLDY    68  68 100 CALM      30.00S
$$

ARZ036-190900-
EAST ARKANSAS

CITY           SKY/WX    TMP DP  RH WIND       PRES   REMARKS
WEST MEMPHIS   CLOUDY    74  74 100 CALM      29.95F
$$

ARZ050-053-066-070-073-190900-
SOUTHWEST ARKANSAS

CITY           SKY/WX    TMP DP  RH WIND       PRES   REMARKS
ARKADELPHIA    FAIR      73  72  96 CALM      30.00S
CAMDEN         PTCLDY    75  72  88 CALM      29.99S
TEXARKANA      CLEAR     78  75  90 S5        29.99S
EL DORADO      CLEAR     77  76  96 CALM      29.99F
DE QUEEN       FOG       76  76 100 CALM      29.97R VSB 1/4
$$

ARZ056-057-069-190900-
SOUTHEAST ARKANSAS

CITY           SKY/WX    TMP DP  RH WIND       PRES   REMARKS
PINE BLUFF     CLOUDY    72  70  93 SW3       30.00R
MONTICELLO     CLOUDY    75  71  87 E6        30.01F THUNDER

$$






USA.gov is the U.S. government's official web portal to all federal, state and local government web resources and services.